[[{"header":{"parameterUnit":"m.s-1","parameterCategory":1,"la1":30.2991,"la2":30.254,"lo1":-89.0895,"lo2":-89.0444,"dy":0.0017,"dx":0.0017,"nx":28,"ny":28,"refTime":"2025-11-30T03:00:00:Z","depth":0,"parameterNumber":2,"parameterNumberName":"U-component_of_WINDS"},"data":[0,0,0,0,0,0,0,0,0,0,0,0,0,0,0,0,0,0,0,0,0,0,0,0,0,0,0,0,0,0,0,0,0,0,0,0,0,0,0,0,0,0,0,0,0,0,0,0,0,0,0,0,0,0,0,0,0,0,-6.5529,-6.5531,0,-6.563,-6.5631,-6.5632,-6.5499,-6.5495,-6.549,-6.5485,-6.5588,-6.5595,-6.5602,0,0,0,0,0,0,0,0,0,0,0,0,0,-6.5223,-6.5229,-6.5529,-6.5531,-6.5532,-6.563,-6.5631,-6.5632,-6.55,-6.5494,-6.5489,-6.5483,-6.5586,-6.5594,-6.5603,0,0,0,0,0,0,0,0,0,0,0,0,0,-6.5343,-6.5232,-6.5529,-6.5478,-6.5474,-6.5629,-6.5631,-6.5633,-6.5501,-6.5494,-6.5487,-6.548,-6.5583,-6.5593,-6.5604,-6.5814,0,0,-6.5637,-6.5641,0,0,0,0,0,0,0,0,-6.5337,-6.5355,-6.5484,-6.5482,-6.5478,-6.5545,-6.556,-6.5694,-6.5503,-6.5491,-6.5485,-6.5477,-6.5579,-6.559,-6.5624,-6.5819,-6.5823,-6.5638,-6.5644,-6.5649,-6.5652,0,0,0,0,0,0,0,-6.5328,-6.535,-6.5569,-6.5486,-6.5482,-6.545,-6.5459,-6.5585,-6.5574,-6.5492,-6.5482,-6.5496,-6.5576,-6.5614,-6.5626,-6.5825,-6.5637,-6.5647,-6.5654,-6.5658,-6.6198,-6.6205,0,0,0,0,0,0,-6.5326,-6.5343,-6.5566,-6.5572,-6.5388,-6.5461,-6.5471,-6.553,-6.5572,-6.5572,-6.5502,-6.5489,-6.56,-6.5613,-6.5629,-6.5878,-6.5649,-6.5659,-6.5665,-6.619,-6.62,-6.6208,0,0,0,0,0,0,-6.532,-6.5347,-6.5562,-6.5455,-6.548,-6.5474,-6.5542,-6.5536,-6.5574,-6.558,-6.5578,-6.5543,-6.5594,-6.5614,-6.5769,-6.588,-6.5664,-6.5674,-6.6181,-6.6193,-6.6204,-6.6379,0,0,0,0,0,0,-6.5312,-6.5346,-6.5426,-6.5458,-6.5486,-6.5701,-6.5548,-6.5543,-6.5593,-6.5578,-6.5618,-6.5618,-6.559,-6.5754,-6.578,-6.5891,-6.5682,-6.6171,-6.6186,-6.62,-6.6364,-6.6396,-6.6423,0,0,0,0,0,-6.5301,-6.5471,-6.543,-6.5458,-6.5586,-6.5707,-6.5723,-6.5688,-6.5603,-6.5683,-6.5687,-6.5617,-6.5864,-6.5771,-6.5799,-6.5915,-6.6164,-6.6182,-6.6199,-6.635,-6.6389,-6.6422,0,0,0,0,0,0,-6.5451,-6.5474,-6.5429,-6.5614,-6.566,-6.5685,-6.5785,-6.5731,-6.5801,-6.5784,-6.5737,-6.5747,-6.5914,-6.593,-6.5826,-6.6122,-6.6,-6.6024,-6.6105,-6.6142,-6.6171,-6.6164,-6.5691,0,0,0,0,0,-6.5506,-6.5603,-6.5617,-6.5779,-6.5804,-6.5791,-6.5843,-6.5812,-6.5857,-6.5876,-6.5891,-6.5938,-6.6026,-6.6085,-6.6166,-6.6365,-6.6372,-6.6459,-6.6489,-6.6513,-6.6535,-6.6642,-6.6681,-6.6266,-6.6266,-6.6266,0,0,-6.5619,-6.5644,-6.5708,-6.581,-6.5841,-6.5943,-6.5808,-6.5921,-6.5996,-6.5893,-6.604,-6.6054,-6.6103,-6.6282,-6.6361,-6.63,-6.6651,-6.6536,-6.6555,-6.6563,-6.6664,-6.6704,-6.6739,-6.6278,-6.6276,-6.6274,0,0,-6.5878,-6.5906,-6.6044,-6.6079,-6.6129,-6.612,-6.6153,-6.6187,-6.6192,-6.634,-6.6264,-6.6353,-6.6506,-6.6544,-6.6583,-6.6859,-6.6797,-6.6887,-6.7042,-6.7147,-6.718,-6.7209,-6.7307,-6.7343,-6.6908,-6.6908,-6.6909,0,-6.6013,-6.6163,-6.6122,-6.6241,-6.6288,-6.62,-6.634,-6.6376,-6.645,-6.6485,-6.6416,-6.6606,-6.6633,-6.682,-6.6887,-6.6922,-6.6959,-6.6881,-6.7178,-6.7207,-6.7233,-6.7327,-6.7364,-6.6919,-6.6918,-6.6917,-6.6916,0,-6.6326,-6.6432,-6.6537,-6.6612,-6.6671,-6.68,-6.6779,-6.6844,-6.6808,-6.6806,-6.6958,-6.6988,-6.7074,-6.7116,-6.7082,-6.7299,-6.7259,-6.7186,-6.7062,-6.7284,-6.7371,-6.7406,-6.6934,-6.693,-6.6927,-6.6925,0,0,-6.6681,-6.6732,-6.6772,-6.6805,-6.6854,-6.6935,-6.706,-6.7145,-6.7202,-6.7256,-6.736,-6.7492,-6.7424,-6.747,-6.7439,-6.7532,-6.7749,-6.7446,-6.7447,-6.7502,-6.799,-6.8046,-6.8088,-6.7708,-6.7715,-6.772,-6.7986,0,-6.694,-6.7156,-6.7124,-6.7333,-6.743,-6.7349,-6.7457,-6.75,-6.7502,-6.7585,-6.7586,-6.7681,-6.7584,-6.7611,-6.7699,-6.7704,-6.7846,-6.7684,-6.7805,-6.781,-6.7795,-6.8133,-6.8192,-6.8441,-6.802,-6.8026,-6.803,0,-6.727,-6.7338,-6.7557,-6.7592,-6.7631,-6.773,-6.7805,-6.7886,-6.7932,-6.7927,-6.7979,-6.7932,-6.8058,-6.7933,-6.8105,-6.7996,-6.8044,-6.8054,-6.8063,-6.8073,-6.7933,-6.8152,-6.8519,-6.8557,-6.8083,-6.8079,-6.8075,0,-6.7507,-6.7653,-6.7803,-6.7834,-6.7878,-6.795,-6.7972,-6.8011,-6.8065,-6.8131,-6.8165,-6.8246,-6.829,-6.8353,-6.833,-6.8241,-6.8508,-6.838,-6.8507,-6.8508,-6.8566,-6.8563,-6.8947,-6.8598,-6.8597,-6.8596,-6.8596,0,-6.78,-6.7937,-6.791,-6.8002,-6.8154,-6.8116,-6.8267,-6.8279,-6.8315,-6.8409,-6.8343,-6.8432,-6.8396,-6.8483,-6.8466,-6.8612,-6.8632,-6.8632,-6.8625,-6.8638,-6.8638,-6.8668,-6.865,-6.8606,-6.8604,-6.8602,-6.8601,0,-6.809,-6.8077,-6.8235,-6.8265,-6.8276,-6.8387,-6.8412,-6.8499,-6.8496,-6.8615,-6.8641,-6.8637,-6.8736,-6.8719,-6.8829,-6.8817,-6.9,-6.8972,-6.8984,-6.8978,-6.9106,-6.9094,-6.9522,-6.9577,-6.9193,-6.9196,-6.9199,0,-6.8277,-6.8381,-6.8422,-6.848,-6.8508,-6.8602,-6.8656,-6.8624,-6.8683,-6.8745,-6.8825,-6.8918,-6.8991,-6.9154,-6.916,-6.9244,-6.9218,-6.9363,-6.923,-6.924,-6.9221,-6.9215,-6.9225,-6.9389,-6.9393,-6.9397,-6.9399,0,-6.8611,-6.86,-6.8681,-6.8761,-6.8828,-6.8889,-6.8944,-6.8995,-6.8967,-6.9037,-6.9138,-6.9195,-6.9307,-6.9401,-6.948,-6.9502,-6.9448,-6.9441,-6.9475,-6.9488,-6.9491,-6.9492,-6.9056,-6.9431,-6.9428,-6.9426,-6.9424,-6.9423,-6.8855,-6.8944,-6.8987,-6.908,-6.9118,-6.9171,-6.9254,-6.9263,-6.9346,-6.9435,-6.9411,-6.9526,-6.9571,-6.9671,-6.9703,-6.9792,-6.9739,-6.9787,-6.98,-6.9812,-6.9828,-6.9478,-6.9806,-6.9805,-6.9804,-6.9804,-6.9803,0,-6.9185,-6.921,-6.9296,-6.9375,-6.9448,-6.939,-6.9448,-6.9513,-6.9615,-6.9662,-6.9736,-6.9852,-6.9943,-6.9958,-7.0045,-7.0114,-7.0091,-7.0138,-7.0132,-7.0138,-6.9871,-6.9833,-7.0155,-7.0155,-7.0155,-7.0155,-7.0155,-7.0154,-6.9366,-6.9513,-6.9508,-6.9674,-6.9697,-6.9809,-6.9847,-6.9896,-6.9933,-7.0067,-7.0142,-7.0151,-7.0186,-7.0274,-7.0356,-7.0358,-7.0393,-7.045,-7.0443,-7.0192,-7.0157,-7.0123,-7.0088,-7.0458,-7.0458,-7.0702,-7.0705,-7.0706]},{"header":{"parameterUnit":"m.s-1","parameterCategory":1,"la1":30.2991,"la2":30.254,"lo1":-89.0895,"lo2":-89.0444,"dy":0.0017,"dx":0.0017,"nx":28,"ny":28,"refTime":"2025-11-30T03:00:00:Z","depth":0,"parameterNumber":3,"parameterNumberName":"V-component_of_WINDS"},"data":[0,0,0,0,0,0,0,0,0,0,0,0,0,0,0,0,0,0,0,0,0,0,0,0,0,0,0,0,0,0,0,0,0,0,0,0,0,0,0,0,0,0,0,0,0,0,0,0,0,0,0,0,0,0,0,0,0,0,-1.9119,-1.9118,0,-1.9097,-1.9097,-1.9096,-1.9046,-1.9045,-1.9044,-1.9043,-1.9021,-1.9021,-1.9022,0,0,0,0,0,0,0,0,0,0,0,0,0,-1.9115,-1.9115,-1.9119,-1.9118,-1.9118,-1.9097,-1.9097,-1.9096,-1.9047,-1.9045,-1.9044,-1.9043,-1.9021,-1.9021,-1.9022,0,0,0,0,0,0,0,0,0,0,0,0,0,-1.9107,-1.9115,-1.9119,-1.9091,-1.9088,-1.9097,-1.9097,-1.9096,-1.9047,-1.9045,-1.9044,-1.9042,-1.9021,-1.9021,-1.9022,-1.9056,0,0,-1.9023,-1.9024,0,0,0,0,0,0,0,0,-1.9108,-1.9107,-1.9095,-1.9093,-1.909,-1.9073,-1.9087,-1.9083,-1.9047,-1.9062,-1.9043,-1.9041,-1.9039,-1.9038,-1.9038,-1.9055,-1.9054,-1.9023,-1.9024,-1.9024,-1.9024,0,0,0,0,0,0,0,-1.9108,-1.9108,-1.911,-1.9095,-1.9092,-1.9079,-1.9076,-1.9086,-1.906,-1.9061,-1.9057,-1.9055,-1.9038,-1.9037,-1.9037,-1.9054,-1.9023,-1.9024,-1.9024,-1.9024,-1.9096,-1.9098,0,0,0,0,0,0,-1.9113,-1.9109,-1.9111,-1.9109,-1.9095,-1.908,-1.9077,-1.908,-1.906,-1.9055,-1.9057,-1.9053,-1.9037,-1.9036,-1.9036,-1.9074,-1.9024,-1.9024,-1.9025,-1.9095,-1.9097,-1.9098,0,0,0,0,0,0,-1.9113,-1.9114,-1.9112,-1.9108,-1.9107,-1.9082,-1.9085,-1.908,-1.908,-1.9056,-1.9051,-1.9061,-1.9036,-1.9035,-1.9051,-1.9072,-1.9025,-1.9025,-1.9093,-1.9095,-1.9097,-1.9151,0,0,0,0,0,0,-1.9113,-1.9114,-1.9128,-1.9109,-1.9107,-1.9128,-1.9087,-1.9081,-1.9081,-1.9076,-1.9059,-1.9055,-1.9034,-1.905,-1.9052,-1.9072,-1.9026,-1.9091,-1.9094,-1.9097,-1.9147,-1.9155,-1.9161,0,0,0,0,0,-1.9113,-1.9144,-1.9129,-1.9129,-1.9124,-1.9129,-1.9128,-1.9104,-1.9083,-1.9096,-1.908,-1.9056,-1.907,-1.9053,-1.9053,-1.9075,-1.9089,-1.9093,-1.9096,-1.9144,-1.9153,-1.9161,0,0,0,0,0,0,-1.9167,-1.9141,-1.9124,-1.9149,-1.9142,-1.9121,-1.9137,-1.9115,-1.9114,-1.9109,-1.9079,-1.9075,-1.9095,-1.9086,-1.9068,-1.9106,-1.9075,-1.9079,-1.9111,-1.912,-1.9127,-1.9129,-1.9026,0,0,0,0,0,-1.9181,-1.9188,-1.9165,-1.919,-1.9187,-1.9163,-1.9164,-1.9146,-1.9137,-1.9134,-1.912,-1.9112,-1.9114,-1.9116,-1.9117,-1.9145,-1.914,-1.916,-1.9167,-1.9173,-1.9177,-1.9189,-1.9198,-1.911,-1.911,-1.911,0,0,-1.9212,-1.9198,-1.9205,-1.92,-1.9192,-1.92,-1.916,-1.917,-1.9175,-1.9135,-1.9149,-1.9138,-1.9127,-1.9149,-1.9158,-1.9142,-1.92,-1.9177,-1.9182,-1.9183,-1.9194,-1.9202,-1.921,-1.9112,-1.9112,-1.9112,0,0,-1.9271,-1.9262,-1.9281,-1.9273,-1.9261,-1.9245,-1.9249,-1.9231,-1.9222,-1.9236,-1.9205,-1.921,-1.9215,-1.9208,-1.9205,-1.9259,-1.9236,-1.926,-1.9298,-1.931,-1.9317,-1.9323,-1.9342,-1.9349,-1.9264,-1.9264,-1.9264,0,-1.931,-1.9321,-1.9293,-1.9305,-1.9303,-1.9266,-1.9284,-1.9278,-1.9267,-1.9267,-1.9249,-1.9253,-1.9243,-1.9262,-1.9275,-1.9274,-1.9278,-1.9262,-1.9318,-1.9324,-1.9329,-1.9347,-1.9354,-1.9267,-1.9267,-1.9266,-1.9266,0,-1.9369,-1.9377,-1.9393,-1.9383,-1.9383,-1.9398,-1.9372,-1.9375,-1.9356,-1.9341,-1.9354,-1.934,-1.9337,-1.934,-1.9322,-1.9356,-1.9346,-1.9324,-1.9293,-1.9341,-1.9357,-1.9363,-1.9271,-1.927,-1.9269,-1.9269,0,0,-1.9463,-1.9436,-1.9443,-1.9437,-1.942,-1.9425,-1.9437,-1.9434,-1.9437,-1.943,-1.9439,-1.9443,-1.9421,-1.9418,-1.9398,-1.941,-1.9452,-1.9385,-1.9385,-1.9398,-1.9487,-1.9504,-1.9513,-1.9436,-1.9437,-1.9438,-1.9488,0,-1.9519,-1.9539,-1.9513,-1.9539,-1.9544,-1.9508,-1.9518,-1.9509,-1.9494,-1.9496,-1.948,-1.9483,-1.9455,-1.9452,-1.9462,-1.9445,-1.9469,-1.9441,-1.9444,-1.9444,-1.9448,-1.9521,-1.954,-1.9588,-1.9494,-1.9495,-1.9496,0,-1.9587,-1.9582,-1.9608,-1.9588,-1.9589,-1.9599,-1.9593,-1.9596,-1.9583,-1.9572,-1.9567,-1.9543,-1.9552,-1.9522,-1.9534,-1.9515,-1.9514,-1.9506,-1.9507,-1.9507,-1.9473,-1.9523,-1.9602,-1.961,-1.9505,-1.9505,-1.9504,0,-1.9652,-1.9653,-1.9668,-1.9664,-1.9641,-1.9648,-1.9639,-1.9625,-1.9624,-1.9618,-1.9617,-1.9612,-1.961,-1.9607,-1.9582,-1.9562,-1.9596,-1.9564,-1.9586,-1.9587,-1.9596,-1.9596,-1.9677,-1.9596,-1.9595,-1.9595,-1.9595,0,-1.9717,-1.9734,-1.9697,-1.9706,-1.9724,-1.9693,-1.9711,-1.9698,-1.9685,-1.9691,-1.9659,-1.9664,-1.9631,-1.9633,-1.9613,-1.9625,-1.9624,-1.9615,-1.9609,-1.9618,-1.9619,-1.9618,-1.9614,-1.9597,-1.9597,-1.9596,-1.9596,0,-1.9794,-1.977,-1.9784,-1.976,-1.9754,-1.9768,-1.9747,-1.9754,-1.9737,-1.9744,-1.9744,-1.9716,-1.9716,-1.969,-1.9686,-1.9672,-1.9693,-1.9681,-1.9697,-1.9694,-1.9718,-1.9716,-1.9801,-1.981,-1.9723,-1.9724,-1.9724,0,-1.9837,-1.985,-1.9827,-1.9828,-1.982,-1.9822,-1.9821,-1.979,-1.979,-1.9775,-1.9784,-1.9781,-1.9778,-1.9779,-1.9758,-1.9754,-1.9742,-1.9772,-1.9741,-1.9749,-1.9742,-1.9742,-1.9742,-1.9779,-1.978,-1.9781,-1.9781,0,-1.9917,-1.9903,-1.9902,-1.9897,-1.9895,-1.9889,-1.9881,-1.9884,-1.985,-1.9851,-1.9851,-1.9848,-1.9842,-1.9839,-1.983,-1.982,-1.9795,-1.9791,-1.9796,-1.9805,-1.9814,-1.9809,-1.9715,-1.9789,-1.9789,-1.9788,-1.9788,-1.9787,-1.9978,-1.9986,-1.9971,-1.997,-1.9961,-1.9953,-1.9958,-1.9941,-1.994,-1.9933,-1.9914,-1.9917,-1.9901,-1.9887,-1.9878,-1.9879,-1.9864,-1.9871,-1.9873,-1.9875,-1.988,-1.9813,-1.9877,-1.9877,-1.9877,-1.9876,-1.9876,0,-2.0055,-2.0043,-2.0043,-2.0032,-2.0031,-2.0006,-1.9996,-1.9996,-1.9999,-1.9987,-1.9983,-1.9982,-1.9978,-1.9956,-1.995,-1.9955,-1.9943,-1.9954,-1.9954,-1.9952,-1.9894,-1.989,-1.9964,-1.9964,-1.9964,-1.9964,-1.9964,-1.9964,-2.0096,-2.0108,-2.0093,-2.01,-2.0087,-2.0089,-2.0085,-2.0077,-2.0067,-2.0067,-2.0064,-2.0049,-2.0033,-2.0025,-2.002,-2.0014,-2.0013,-2.0028,-2.0018,-1.9964,-1.9956,-1.9948,-1.9944,-2.0028,-2.0028,-2.0075,-2.0076,-2.0076]}]]